TimeEDT,TemperatureF,Dew PointF,Humidity,Sea Level PressureIn,VisibilityMPH,Wind Direction,Wind SpeedMPH,Gust SpeedMPH,PrecipitationIn,Events,Conditions,WindDirDegrees,DateUTC
12:52 AM,75.9,72.0,87,29.83,9.0,SW,6.9,-,N/A,,Clear,220,2013-09-01 04:52:00
1:52 AM,75.0,72.0,90,29.83,9.0,SW,8.1,-,N/A,,Mostly Cloudy,220,2013-09-01 05:52:00
2:52 AM,75.0,72.0,90,29.82,9.0,SSW,6.9,-,N/A,,Clear,210,2013-09-01 06:52:00
3:52 AM,75.0,72.0,90,29.82,10.0,South,6.9,-,N/A,,Partly Cloudy,190,2013-09-01 07:52:00
4:52 AM,75.0,72.0,90,29.81,9.0,SSW,9.2,-,N/A,,Clear,200,2013-09-01 08:52:00
5:52 AM,73.9,72.0,93,29.83,9.0,SSW,6.9,-,N/A,,Mostly Cloudy,210,2013-09-01 09:52:00
6:12 AM,73.4,71.6,94,29.84,9.0,SSW,6.9,-,N/A,,Mostly Cloudy,210,2013-09-01 10:12:00
6:37 AM,73.4,71.6,94,29.84,8.0,SW,3.5,-,N/A,,Scattered Clouds,220,2013-09-01 10:37:00
6:52 AM,73.9,72.0,93,29.85,8.0,SSW,5.8,-,N/A,,Scattered Clouds,210,2013-09-01 10:52:00
7:12 AM,75.2,71.6,89,29.86,8.0,SW,6.9,-,N/A,,Overcast,220,2013-09-01 11:12:00
7:52 AM,75.0,72.0,90,29.86,9.0,SW,5.8,-,N/A,,Mostly Cloudy,220,2013-09-01 11:52:00
8:52 AM,75.0,72.0,90,29.86,8.0,SSW,4.6,-,N/A,,Overcast,210,2013-09-01 12:52:00
9:20 AM,77.0,71.6,83,29.86,9.0,SSW,6.9,-,N/A,,Scattered Clouds,210,2013-09-01 13:20:00
9:52 AM,77.0,72.0,84,29.86,10.0,SSW,8.1,-,N/A,,Mostly Cloudy,200,2013-09-01 13:52:00
10:33 AM,78.8,73.4,83,29.86,10.0,South,9.2,-,N/A,,Partly Cloudy,190,2013-09-01 14:33:00
10:52 AM,79.0,72.0,79,29.86,10.0,South,10.4,-,N/A,,Clear,190,2013-09-01 14:52:00
11:52 AM,79.0,72.0,79,29.86,10.0,South,9.2,-,N/A,,Mostly Cloudy,190,2013-09-01 15:52:00
11:59 AM,78.8,71.6,78,29.86,10.0,South,9.2,-,N/A,,Mostly Cloudy,190,2013-09-01 15:59:00
12:52 PM,79.0,73.0,82,29.85,9.0,South,6.9,-,N/A,,Overcast,190,2013-09-01 16:52:00
1:13 PM,80.6,73.4,79,29.85,10.0,SW,8.1,-,N/A,,Scattered Clouds,220,2013-09-01 17:13:00
1:52 PM,81.0,72.0,74,29.84,10.0,South,8.1,-,N/A,,Clear,190,2013-09-01 17:52:00
2:52 PM,80.1,73.0,79,29.84,10.0,East,9.2,-,N/A,,Clear,80,2013-09-01 18:52:00
3:52 PM,81.0,73.9,79,29.83,10.0,East,6.9,-,N/A,,Clear,80,2013-09-01 19:52:00
4:52 PM,81.0,73.0,77,29.81,10.0,South,8.1,-,N/A,,Clear,180,2013-09-01 20:52:00
5:52 PM,79.0,73.0,82,29.83,10.0,South,8.1,-,N/A,,Clear,180,2013-09-01 21:52:00
6:52 PM,78.1,72.0,81,29.83,9.0,South,8.1,-,N/A,,Clear,180,2013-09-01 22:52:00
7:52 PM,77.0,72.0,84,29.83,10.0,South,6.9,-,N/A,,Scattered Clouds,170,2013-09-01 23:52:00
8:03 PM,77.0,71.6,83,29.83,10.0,South,6.9,-,N/A,,Mostly Cloudy,190,2013-09-02 00:03:00
8:52 PM,77.0,72.0,84,29.84,10.0,South,5.8,-,N/A,,Overcast,190,2013-09-02 00:52:00
9:35 PM,75.2,71.6,89,29.85,9.0,South,4.6,-,N/A,,Scattered Clouds,180,2013-09-02 01:35:00
9:52 PM,75.9,72.0,87,29.85,9.0,South,4.6,-,N/A,,Scattered Clouds,170,2013-09-02 01:52:00
10:01 PM,75.2,71.6,89,29.85,9.0,SSE,4.6,-,N/A,,Mostly Cloudy,160,2013-09-02 02:01:00
10:52 PM,75.9,73.0,91,29.85,8.0,South,5.8,-,N/A,,Overcast,170,2013-09-02 02:52:00
11:52 PM,75.9,73.0,91,29.83,8.0,South,3.5,-,N/A,,Overcast,180,2013-09-02 03:52:00